This is the latest recevied weather packets stored in our database for station/object W6JCZ-13. If no packets are shown the sender has not sent any weather packets the latest 10 day(s).
| Time | Temp. | Humidity | Pressure | Rain* | Wind** | Luminosity | Snow |
|---|---|---|---|---|---|---|---|
| 1778153717 | 12.22° C | 90% | 1015.7 hPa | 0 mm | - | - | - |
| 1778153117 | 11.67° C | 90% | 1015.8 hPa | 0 mm | - | - | - |
| 1778152516 | 12.22° C | 90% | 1015.8 hPa | 0 mm | - | - | - |
| 1778151917 | 12.22° C | 90% | 1015.7 hPa | 0 mm | - | - | - |
| 1778151317 | 12.22° C | 90% | 1015.9 hPa | 0 mm | - | - | - |
| 1778150716 | 11.67° C | 90% | 1015.8 hPa | 0 mm | - | - | - |
| 1778150116 | 12.22° C | 89% | 1015.8 hPa | 0 mm | - | - | - |
| 1778149516 | 12.22° C | 89% | 1015.9 hPa | 0 mm | - | - | - |
| 1778148916 | 12.22° C | 89% | 1016 hPa | 0 mm | - | - | - |
| 1778148316 | 12.22° C | 88% | 1015.8 hPa | 0 mm | - | - | - |
| 1778147716 | 12.78° C | 88% | 1015.8 hPa | 0 mm | - | - | - |
| 1778147116 | 12.78° C | 88% | 1015.9 hPa | 0 mm | - | - | - |
| 1778146517 | 13.33° C | 88% | 1015.9 hPa | 0 mm | - | - | - |
| 1778145916 | 13.33° C | 88% | 1015.9 hPa | 0 mm | - | - | - |
| 1778145316 | 13.33° C | 88% | 1015.9 hPa | 0 mm | - | - | - |
| 1778144716 | 13.33° C | 88% | 1015.9 hPa | 0 mm | - | - | - |
| 1778144116 | 13.33° C | 88% | 1015.8 hPa | 0 mm | - | - | - |
| 1778143516 | 13.33° C | 88% | 1015.9 hPa | 0 mm | - | - | - |
| 1778142916 | 13.89° C | 88% | 1015.9 hPa | 0 mm | - | - | - |
| 1778142316 | 13.89° C | 88% | 1015.8 hPa | 0 mm | - | - | - |
| 1778141716 | 13.89° C | 88% | 1015.9 hPa | 0 mm | - | - | - |
| 1778141116 | 13.89° C | 87% | 1015.8 hPa | 0 mm | - | - | - |
| 1778140516 | 13.89° C | 87% | 1015.9 hPa | 0 mm | - | - | - |
| 1778139916 | 14.44° C | 87% | 1015.9 hPa | 0 mm | - | - | - |
| 1778139316 | 14.44° C | 87% | 1015.9 hPa | 0 mm | - | - | - |
* Rain latest hour (hover to see other rain measurements)
** Current wind speed in m/s (hover to see current wind gust speed)